Radiation Dose measured at exhaust stack monitor of Miscellaneous Solid Waste Incinerator Building/Incinerator raregas monitor
Date,Time,Incinerator Gas Monitor(cps),Wind Direction,Wind Velocity(m/s)
2021/07/23,00:00,1.5,north-northwest,1.4
2021/07/23,00:10,1.4,west-northwest,0.6
2021/07/23,00:20,1.4,west,0.6
2021/07/23,00:30,1.4,south-southwest,1.2
2021/07/23,00:40,1.6,west-northwest,0.9
2021/07/23,00:50,1.5,northwest,0.9
2021/07/23,01:00,1.5,west-northwest,0.8
2021/07/23,01:10,1.5,north-northwest,2.6
2021/07/23,01:20,1.5,south,0.9
2021/07/23,01:30,1.5,-,CALM
2021/07/23,01:40,1.4,north-northwest,3.1
2021/07/23,01:50,1.5,north,2.2
2021/07/23,02:00,1.5,north-northeast,1.5
2021/07/23,02:10,1.4,north,1.2
2021/07/23,02:20,1.6,north,2.0
2021/07/23,02:30,1.4,north,1.7
2021/07/23,02:40,1.6,north,1.4
2021/07/23,02:50,1.5,north-northwest,0.9
2021/07/23,03:00,1.6,east-southeast,0.8
2021/07/23,03:10,1.5,south-southeast,0.9
2021/07/23,03:20,1.4,-,CALM
2021/07/23,03:30,1.5,-,CALM
2021/07/23,03:40,1.4,-,CALM
2021/07/23,03:50,1.4,south-southwest,0.8
2021/07/23,04:00,1.4,-,CALM
2021/07/23,04:10,1.4,north-northwest,1.1
2021/07/23,04:20,1.4,north,1.4
2021/07/23,04:30,1.4,north,1.5
2021/07/23,04:40,1.4,north,1.7
2021/07/23,04:50,1.4,north,2.2
2021/07/23,05:00,1.4,north-northwest,3.0
2021/07/23,05:10,1.5,north,2.3
2021/07/23,05:20,1.5,north,2.2
2021/07/23,05:30,1.5,north-northeast,2.3
2021/07/23,05:40,1.5,north,2.5
2021/07/23,05:50,1.6,north,1.7
2021/07/23,06:00,1.4,north,1.4
2021/07/23,06:10,1.4,north-northeast,0.8
2021/07/23,06:20,1.5,north-northeast,1.1
2021/07/23,06:30,1.4,north,1.1
2021/07/23,06:40,1.4,west-northwest,1.2
2021/07/23,06:50,1.4,north,0.6
2021/07/23,07:00,1.4,north-northeast,1.2
2021/07/23,07:10,1.4,east-northeast,0.6
2021/07/23,07:20,1.4,east-southeast,1.2
2021/07/23,07:30,1.5,south-southeast,2.0
2021/07/23,07:40,1.5,south-southeast,2.0
2021/07/23,07:50,1.4,south-southeast,2.6
2021/07/23,08:00,1.4,south,3.3
2021/07/23,08:10,1.5,south-southwest,3.0
2021/07/23,08:20,1.5,south,2.8
2021/07/23,08:30,1.5,south-southwest,2.6
2021/07/23,08:40,1.4,south-southwest,2.3
2021/07/23,08:50,1.4,south-southwest,2.3
2021/07/23,09:00,1.4,south,1.7
2021/07/23,09:10,1.5,south,0.6
2021/07/23,09:20,1.4,south,1.5
2021/07/23,09:30,1.5,southeast,2.6
2021/07/23,09:40,1.5,southeast,4.7
2021/07/23,09:50,1.5,southeast,4.5
2021/07/23,10:00,1.5,south-southeast,4.2
2021/07/23,10:10,1.4,south-southeast,3.8
2021/07/23,10:20,1.5,south-southeast,4.4
2021/07/23,10:30,1.4,south-southeast,4.3
2021/07/23,10:40,1.5,southeast,3.4
2021/07/23,10:50,1.6,southeast,4.2
2021/07/23,11:00,1.5,south-southeast,4.0
2021/07/23,11:10,1.4,south-southeast,5.0
2021/07/23,11:20,1.5,southeast,4.6
2021/07/23,11:30,1.4,south-southeast,5.1
2021/07/23,11:40,1.5,south-southeast,5.4
2021/07/23,11:50,1.4,south-southeast,4.8
2021/07/23,12:00,1.5,south-southeast,5.1
2021/07/23,12:10,1.4,south-southeast,5.0
2021/07/23,12:20,1.4,south-southeast,4.2
2021/07/23,12:30,1.4,south-southeast,5.1
2021/07/23,12:40,1.5,south-southeast,5.8
2021/07/23,12:50,1.5,south-southeast,5.8
2021/07/23,13:00,1.5,south,6.0
2021/07/23,13:10,1.4,south-southeast,5.8
2021/07/23,13:20,1.5,south-southeast,6.8
2021/07/23,13:30,1.5,south-southeast,6.8
2021/07/23,13:40,1.5,south-southeast,7.0
2021/07/23,13:50,1.4,southeast,6.5
2021/07/23,14:00,1.4,southeast,5.3
2021/07/23,14:10,1.5,south-southeast,5.9
2021/07/23,14:20,1.3,south-southeast,5.3
2021/07/23,14:30,1.5,southeast,5.7
2021/07/23,14:40,1.5,south-southeast,6.5
2021/07/23,14:50,1.4,south-southeast,6.8
2021/07/23,15:00,1.5,south-southeast,7.0
2021/07/23,15:10,1.5,south-southeast,6.3
2021/07/23,15:20,1.5,south-southeast,6.5
2021/07/23,15:30,1.4,south-southeast,7.4
2021/07/23,15:40,1.4,south-southeast,7.6
2021/07/23,15:50,1.4,south-southeast,8.8
2021/07/23,16:00,1.5,south-southeast,9.2
2021/07/23,16:10,1.4,south-southeast,8.5
2021/07/23,16:20,1.5,south-southeast,8.4
2021/07/23,16:30,1.4,southeast,4.0
2021/07/23,16:40,1.5,south-southeast,6.0
2021/07/23,16:50,1.4,south-southeast,7.3
2021/07/23,17:00,1.5,south-southeast,6.4
2021/07/23,17:10,1.5,south-southeast,6.5
2021/07/23,17:20,1.4,south-southeast,8.2
2021/07/23,17:30,1.4,south-southeast,7.6
2021/07/23,17:40,1.5,south-southeast,6.7
2021/07/23,17:50,1.5,south-southeast,7.2
2021/07/23,18:00,1.4,south-southeast,7.2
2021/07/23,18:10,1.5,south-southeast,9.1
2021/07/23,18:20,1.5,south-southeast,7.6
2021/07/23,18:30,1.5,south,7.1
2021/07/23,18:40,1.4,south-southeast,7.4
2021/07/23,18:50,1.5,south,6.5
2021/07/23,19:00,1.5,south,6.1
2021/07/23,19:10,1.4,south,6.5
2021/07/23,19:20,1.5,south,6.9
2021/07/23,19:30,1.4,south,6.3
2021/07/23,19:40,1.4,south,7.0
2021/07/23,19:50,1.5,south,7.1
2021/07/23,20:00,1.4,south,6.8
2021/07/23,20:10,1.5,south,6.1
2021/07/23,20:20,1.5,south,6.4
2021/07/23,20:30,1.4,south,6.5
2021/07/23,20:40,1.5,south,6.8
2021/07/23,20:50,1.4,south,6.8
2021/07/23,21:00,1.4,south,6.5
2021/07/23,21:10,1.4,south,6.0
2021/07/23,21:20,1.4,south,5.7
2021/07/23,21:30,1.5,south,4.8
2021/07/23,21:40,1.4,south-southwest,5.1
2021/07/23,21:50,1.4,south-southwest,4.2
2021/07/23,22:00,1.4,south-southwest,3.2
2021/07/23,22:10,1.4,south-southwest,3.2
2021/07/23,22:20,1.4,southwest,2.5
2021/07/23,22:30,1.5,southwest,3.0
2021/07/23,22:40,1.5,south-southwest,2.8
2021/07/23,22:50,1.5,south-southwest,2.6
2021/07/23,23:00,1.4,south,2.6
2021/07/23,23:10,1.3,south,2.5
2021/07/23,23:20,1.5,south,1.2
2021/07/23,23:30,1.5,south,1.4
2021/07/23,23:40,1.5,south,2.0
2021/07/23,23:50,1.5,south,2.2
